CAPE
1003 1209 1740 1536 1599 1136 1477 1548 1414 1651 2046 1764 1525 1286 1211 1314 1204 689 470 425 504 659 483 608 591 575 508 380 202 245 477 677 673 592 597 525 325 82 67 441 267 3 234
733 1142 1823 1776 1646 1656 1209 1548 1712 1464 1699 2263 1587 1222 1319 1488 1188 649 678 422 385 466 387 561 718 799 580 412 242 407 305 458 621 526 388 368 428 322 128 360 456 54 106
882 898 1089 1716 1696 1699 1765 1548 1483 1477 1534 2022 1730 1471 1563 1275 1107 788 772 620 798 1045 977 924 851 765 524 631 756 494 344 406 397 351 342 1 3 121 133 531 461 389 109
817 798 972 1296 1431 1636 1687 1727 1581 1362 1458 1722 1666 1828 1313 1366 1359 1040 778 1047 1111 1026 1037 1004 939 893 694 740 660 454 375 311 250 104 63 18 0 208 297 168 236 204 276
134 189 1045 1400 1366 1237 1346 1356 1469 1395 1483 1526 1735 1581 1315 1265 1274 1218 1098 1271 1123 1233 1433 1202 1005 860 529 595 534 439 492 276 122 15 42 156 603 541 704 626 631 484 465
0 0 291 851 847 1424 1346 1228 1379 1336 1202 1435 1440 1385 1376 1304 1181 1272 1524 1153 1081 1016 1326 942 777 581 651 449 325 284 388 229 45 10 169 328 381 453 512 356 357 414 427
0 0 0 0 540 1045 1535 1364 1213 1142 1357 1277 1202 1302 1196 1220 1146 1276 1271 1219 878 1273 1162 827 499 353 294 403 84 113 176 222 0 9 246 354 296 163 191 259 286 264 188
0 0 0 0 0 88 1103 1488 1401 1273 1150 1285 1180 1235 1292 1182 1203 1268 944 965 970 1022 1018 847 556 326 310 256 99 216 313 8 0 210 376 309 365 197 139 111 119 73 88
0 0 0 0 0 0 0 33 545 1226 1528 1433 1448 1146 1166 1107 1081 1213 871 1049 1118 1140 956 1117 982 723 822 710 598 443 186 0 40 235 299 204 310 117 36 2 29 29 17
0 0 0 0 0 0 0 0 0 76 458 1058 1025 959 561 492 813 941 808 741 904 1110 1022 1303 1197 969 958 684 548 283 24 46 278 157 128 151 299 46 15 0 0 3 2
0 0 0 0 0 0 0 0 0 0 50 297 569 442 421 456 402 454 382 384 790 935 826 1284 1138 960 721 414 435 67 24 96 154 177 27 37 127 33 15 0 0 0 4
0 0 0 0 0 0 0 0 0 0 0 0 39 628 532 432 525 511 436 330 575 717 542 813 1116 915 441 79 186 0 24 7 83 43 14 112 142 41 24 3 0 1 9
0 0 0 0 0 0 0 0 0 0 0 0 0 1 712 599 569 585 1069 1059 868 442 613 323 414 778 256 2 8 0 0 8 21 47 30 93 153 32 27 22 0 2 18
0 0 0 0 0 0 0 0 0 0 0 0 0 0 0 839 652 836 1002 974 980 847 690 406 33 25 218 72 7 2 1 12 17 28 34 23 131 68 87 113 36 19 40
0 0 0 0 0 0 0 0 0 0 0 0 0 0 0 25 618 798 809 939 1054 982 978 752 228 95 39 46 62 6 4 7 9 18 39 6 26 146 247 121 67 67 93
0 0 0 0 0 0 0 0 0 0 0 0 0 0 0 0 0 451 648 776 782 871 730 1069 581 113 66 34 9 51 1 2 4 9 15 13 6 24 265 118 194 205 212
0 0 0 0 0 0 0 0 0 0 0 0 0 0 0 0 0 3 36 528 544 728 723 745 686 525 190 102 81 61 0 0 4 6 19 28 0 28 58 127 219 165 245
0 0 0 0 0 0 0 0 0 0 0 0 0 0 0 0 0 0 3 13 363 542 625 805 564 460 263 203 73 48 3 2 0 3 15 29 17 30 40 76 163 190 215
0 0 0 0 0 0 0 0 0 0 0 0 0 3 1 0 0 0 2 8 12 42 278 242 322 297 278 255 40 77 32 21 45 0 15 26 10 41 52 30 50 84 88
0 0 0 0 0 0 0 0 1 0 0 0 0 0 2 1 0 2 6 11 16 38 34 152 153 242 191 115 62 11 17 26 4 9 0 12 11 29 53 55 42 39 50
0 0 0 0 0 0 0 0 2 2 0 0 0 0 0 0 0 0 7 11 14 31 36 28 46 26 165 24 357 35 69 78 0 6 0 15 25 48 50 62 41 19 15
0 0 0 0 0 0 0 0 0 3 1 2 1 1 1 0 0 0 0 0 3 18 27 23 58 49 42 40 38 17 36 16 1 22 0 0 15 57 64 28 26 19 11
0 0 0 0 0 0 1 2 2 1 2 3 4 2 7 3 2 3 0 0 3 11 9 12 15 70 31 25 40 73 19 0 7 20 3 2 0 22 49 52 9 24 8
0 0 0 0 0 0 4 1 3 2 1 0 4 18 18 7 0 1 2 1 3 6 14 13 42 88 66 19 47 36 18 24 25 8 1 0 0 0 32 24 35 35 30
0 0 2 0 0 5 22 4 1 2 2 2 5 3 3 8 9 3 2 3 6 5 18 16 29 71 60 67 24 25 28 7 16 9 14 0 2 1 0 19 20 18 15
0 0 30 44 65 69 76 70 29 24 1 8 4 8 1 2 5 2 3 2 0 5 7 28 41 61 66 87 65 53 18 1 5 14 4 2 8 4 1 0 8 9 4
CIN
-5 -21 -0 -0 -0 -8 -5 -6 -7 -3 -1 -3 -2 -1 -0 -0 -0 -13 -27 -23 -16 -3 -2 -0 -0 -0 -0 -1 -48 -53 -21 -3 -5 -18 -18 -29 -81 -181 -182 -58 -112 -133 -95
-23 -15 -1 -0 -0 -0 -7 -4 -5 -8 -4 -0 -3 -3 -3 -0 -0 -8 -9 -22 -18 -6 -2 -0 -0 -0 -0 -5 -40 -23 -55 -33 -17 -36 -64 -68 -55 -83 -147 -75 -54 -227 -144
-7 -24 -5 -0 -0 -0 -0 -2 -4 -7 -4 -1 -2 -3 -1 -2 -0 -1 -0 -1 -0 -0 -0 -0 -0 -0 -0 -0 -0 -12 -49 -44 -64 -87 -88 -0 -14 -167 -155 -45 -43 -45 -152
-9 -11 -16 -8 -1 -0 -0 -0 -1 -3 -4 -1 -2 -1 -4 -1 -0 -0 -0 -0 -0 -0 -0 -0 -0 -0 -0 -0 -0 -12 -34 -59 -103 -234 -208 -0 -0 -115 -71 -110 -90 -107 -82
-113 -90 -19 -10 -2 -2 -1 -1 -0 -0 -0 -3 -1 -1 -6 -3 -1 -1 -0 -0 -1 -0 -0 -0 -0 -0 -1 -0 -4 -16 -8 -65 -160 -52 -92 -99 -17 -16 -12 -20 -19 -32 -31
-0 -0 -128 -49 -45 -6 -4 -4 -1 -1 -2 -2 -1 -1 -1 -1 -0 -1 -2 -2 -3 -4 -1 -1 -0 -0 -0 -10 -34 -42 -24 -70 -230 -3 -135 -64 -37 -25 -22 -51 -40 -39 -35
-0 -0 -0 -0 -74 -26 -0 -2 -4 -4 -1 -1 -1 -0 -0 -0 -2 -1 -3 -3 -3 -1 -1 -0 -0 -1 -13 -5 -105 -114 -88 -81 -0 -1 -77 -46 -74 -111 -93 -66 -57 -62 -90
-0 -0 -0 -0 -0 -47 -18 -0 -0 -2 -3 -1 -1 -0 -0 -1 -1 -1 -3 -3 -3 -2 -1 -0 -0 -0 -6 -20 -90 -69 -55 -22 -0 -74 -44 -62 -57 -108 -124 -128 -124 -157 -136
-0 -0 -0 -0 -0 -0 -0 -117 -48 -4 -0 -1 -1 -2 -3 -4 -3 -1 -6 -2 -2 -1 -3 -0 -0 -0 -0 -0 -0 -4 -95 -0 -124 -49 -51 -102 -73 -139 -128 -6 -249 -233 -244
-0 -0 -0 -0 -0 -0 -0 -0 -0 -183 -42 -8 -7 -10 -27 -33 -15 -7 -8 -9 -5 -2 -2 -0 -0 -0 -0 -0 -1 -30 -88 -107 -54 -73 -99 -112 -71 -198 -31 -0 -0 -0 -0
-0 -0 -0 -0 -0 -0 -0 -0 -0 -0 -171 -40 -23 -26 -18 -1 -0 -0 -2 -10 -11 -4 -5 -0 -0 -0 -1 -3 -3 -68 -24 -66 -87 -75 -3 -66 -102 -14 -26 -0 -0 -0 -0
-0 -0 -0 -0 -0 -0 -0 -0 -0 -0 -0 -0 -23 -0 -2 -0 -1 -2 -2 -13 -26 -13 -12 -6 -0 -2 -6 -18 -30 -0 -10 -0 -45 -9 -0 -103 -90 -7 -18 -13 -0 -0 -0
-0 -0 -0 -0 -0 -0 -0 -0 -0 -0 -0 -0 -0 -0 -3 -1 -24 -13 -2 -11 -2 -12 -4 -8 -2 -1 -14 -21 -0 -0 -0 -1 -1 -1 -58 -146 -67 -181 -5 -1 -0 -0 -0
-0 -0 -0 -0 -0 -0 -0 -0 -0 -0 -0 -0 -0 -0 -0 -3 -0 -0 -1 -3 -0 -0 -0 -0 -18 -32 -9 -9 -0 -0 -0 -0 -1 -0 -28 -78 -96 -116 -96 -93 -0 -7 -0
-0 -0 -0 -0 -0 -0 -0 -0 -0 -0 -0 -0 -0 -0 -0 -28 -0 -1 -4 -2 -3 -1 -0 -0 -3 -2 -21 -32 -12 -12 -0 -0 -0 -1 -12 -67 -52 -82 -29 -71 -145 -136 -105
-0 -0 -0 -0 -0 -0 -0 -0 -0 -0 -0 -0 -0 -0 -0 -0 -0 -0 -1 -0 -6 -5 -7 -0 -0 -5 -9 -27 -17 -3 -0 -1 -0 -0 -0 -9 -83 -29 -27 -61 -38 -52 -39
-0 -0 -0 -0 -0 -0 -0 -0 -0 -0 -0 -0 -0 -0 -0 -0 -0 -0 -0 -0 -3 -2 -2 -0 -0 -1 -2 -2 -11 -15 -0 -0 -0 -0 -3 -1 -0 -16 -16 -54 -32 -58 -32
-0 -0 -0 -0 -0 -0 -0 -0 -0 -0 -0 -0 -0 -0 -0 -0 -0 -0 -0 -0 -0 -0 -1 -1 -2 -0 -0 -0 -1 -26 -7 -21 -0 -0 -1 -1 -2 -3 -10 -10 -57 -41 -25
-0 -0 -0 -0 -0 -0 -0 -0 -0 -0 -0 -0 -0 -0 -0 -0 -0 -0 -0 -0 -0 -16 -0 -0 -0 -1 -0 -0 -16 -8 -29 -40 -8 -0 -1 -4 -1 -1 -1 -12 -9 -10 -52
-0 -0 -0 -0 -0 -0 -0 -0 -0 -0 -0 -0 -0 -0 -0 -0 -0 -0 -0 -0 -13 -1 -0 -2 -1 -0 -0 -0 -1 -3 -0 -0 -0 -2 -1 -1 -6 -3 -3 -4 -10 -4 -13
-0 -0 -0 -0 -0 -0 -0 -0 -0 -0 -0 -0 -0 -0 -0 -0 -0 -0 -0 -0 -5 -1 -0 -0 -0 -0 -0 -11 -0 -0 -0 -1 -0 -0 -0 -6 -2 -2 -6 -5 -4 -0 -0
-0 -0 -0 -0 -0 -0 -0 -0 -0 -0 -0 -0 -0 -0 -0 -0 -0 -0 -0 -0 -0 -1 -3 -2 -3 -0 -2 -0 -2 -12 -0 -1 -0 -1 -5 -0 -1 -4 -6 -2 -7 -1 -1
-0 -0 -0 -0 -0 -0 -0 -0 -0 -0 -0 -0 -0 -0 -0 -0 -0 -0 -0 -0 -0 -0 -0 -2 -1 -0 -0 -4 -0 -0 -0 -0 -0 -1 -2 -2 -0 -7 -3 -1 -17 -5 -2
-0 -0 -0 -0 -0 -0 -0 -0 -0 -0 -0 -0 -0 -0 -0 -0 -0 -0 -0 -0 -0 -0 -0 -0 -0 -0 -1 -0 -0 -3 -4 -0 -2 -2 -0 -0 -0 -0 -10 -1 -11 -1 -0
-0 -0 -288 -0 -0 -177 -189 -0 -0 -0 -0 -0 -0 -0 -0 -0 -0 -0 -0 -0 -0 -0 -0 -0 -0 -0 -1 -0 -0 -6 -0 -10 -0 -2 -0 -0 -0 -0 -0 -9 -26 -12 -8
-0 -0 -164 -161 -154 -149 -142 -127 -155 -168 -0 -56 -0 -0 -0 -0 -0 -2 -0 -0 -0 -0 -0 -0 -0 -0 -1 -0 -4 -0 -3 -0 -0 -0 -0 -0 -0 -0 -0 -0 -2 -21 -0
Wind_Speed
22 25 21 19 18 19 19 22 21 18 15 14 13 13 11 10 16 16 17 16 17 16 15 14 12 13 10 11 12 12 12 12 12 11 10 8 8 nan nan 6 10 nan 8
24 29 23 20 19 19 19 20 21 20 17 15 14 14 11 12 13 16 16 16 15 15 15 15 13 14 14 15 15 14 14 14 14 13 11 11 9 7 8 10 14 nan 10
26 29 24 24 21 20 19 19 19 20 20 18 14 15 15 13 12 12 16 16 17 19 18 19 18 18 19 18 18 17 15 15 14 7 1 nan nan 6 9 13 11 10 13
27 26 28 24 23 21 20 18 18 18 20 19 17 15 14 14 13 12 13 15 16 19 22 21 21 21 20 20 19 20 16 15 11 8 nan nan nan 8 7 9 9 12 12
26 27 30 26 23 22 21 21 20 19 18 19 19 17 15 15 14 13 11 13 15 19 23 24 25 25 22 22 20 20 19 16 12 nan nan 15 13 14 16 16 13 14 11
nan nan 32 29 23 19 20 20 21 20 20 20 19 19 18 16 15 15 15 12 13 18 24 26 26 26 24 23 21 20 18 16 nan nan 22 23 17 17 20 22 21 20 18
nan nan nan nan 30 23 19 19 19 20 20 21 20 18 18 17 17 17 18 16 14 18 19 21 23 25 25 23 nan 20 19 15 nan nan 21 20 17 17 18 20 20 19 18
nan nan nan nan nan nan 28 23 21 19 19 21 22 22 19 17 18 20 20 18 18 19 19 18 18 20 22 23 nan 21 19 nan nan 25 23 19 20 18 18 18 18 nan nan
nan nan nan nan nan nan nan nan 29 25 22 21 22 23 23 23 21 19 19 20 21 22 22 19 18 18 18 21 23 22 20 nan nan 26 23 22 20 20 nan nan nan nan nan
nan nan nan nan nan nan nan nan nan nan 27 25 23 23 24 25 25 24 24 22 23 24 24 23 20 19 19 19 24 24 nan nan 24 27 26 25 22 nan nan nan nan nan nan
nan nan nan nan nan nan nan nan nan nan nan 27 26 26 26 23 24 23 25 26 26 24 24 26 24 22 23 25 25 nan nan nan 29 25 nan nan 23 nan nan nan nan nan nan
nan nan nan nan nan nan nan nan nan nan nan nan nan 26 28 24 26 28 29 28 28 28 25 26 27 27 28 nan 27 nan nan nan nan nan nan 28 25 nan nan nan nan nan nan
nan nan nan nan nan nan nan nan nan nan nan nan nan nan 32 30 34 34 34 35 32 30 33 32 28 29 28 nan nan nan nan nan nan nan nan nan 25 nan nan nan nan nan nan
nan nan nan nan nan nan nan nan nan nan nan nan nan nan nan 35 33 34 35 34 33 35 32 32 nan nan 29 nan nan nan nan nan nan nan nan nan 28 nan nan 24 nan nan nan
nan nan nan nan nan nan nan nan nan nan nan nan nan nan nan nan 36 36 37 36 37 36 37 37 35 nan nan nan nan nan nan nan nan nan nan nan nan 29 30 29 nan nan nan
nan nan nan nan nan nan nan nan nan nan nan nan nan nan nan nan nan 36 37 38 38 38 39 39 37 37 nan nan nan nan nan nan nan nan nan nan nan nan 32 31 28 28 25
nan nan nan nan nan nan nan nan nan nan nan nan nan nan nan nan nan nan nan 38 38 38 36 40 37 38 40 38 nan nan nan nan nan nan nan nan nan nan nan 35 38 38 31
nan nan nan nan nan nan nan nan nan nan nan nan nan nan nan nan nan nan nan nan 41 39 40 40 42 44 42 41 nan nan nan nan nan nan nan nan nan nan nan nan 40 43 42
nan nan nan nan nan nan nan nan nan nan nan nan nan nan nan nan nan nan nan nan nan nan 43 45 45 44 42 43 nan nan nan nan nan nan nan nan nan nan nan nan nan nan nan
nan nan nan nan nan nan nan nan nan nan nan nan nan nan nan nan nan nan nan nan nan nan nan 49 47 47 47 45 nan nan nan nan nan nan nan nan nan nan nan nan nan nan nan
nan nan nan nan nan nan nan nan nan nan nan nan nan nan nan nan nan nan nan nan nan nan nan nan nan nan 51 nan 51 nan nan nan nan nan nan nan nan nan nan nan nan nan nan
nan nan nan nan nan nan nan nan nan nan nan nan nan nan nan nan nan nan nan nan nan nan nan nan nan nan nan nan nan nan nan nan nan nan nan nan nan nan nan nan nan nan nan
nan nan nan nan nan nan nan nan nan nan nan nan nan nan nan nan nan nan nan nan nan nan nan nan nan nan nan nan nan nan nan nan nan nan nan nan nan nan nan nan nan nan nan
nan nan nan nan nan nan nan nan nan nan nan nan nan nan nan nan nan nan nan nan nan nan nan nan nan nan nan nan nan nan nan nan nan nan nan nan nan nan nan nan nan nan nan
nan nan nan nan nan nan nan nan nan nan nan nan nan nan nan nan nan nan nan nan nan nan nan nan nan nan nan nan nan nan nan nan nan nan nan nan nan nan nan nan nan nan nan
nan nan nan nan nan nan nan nan nan nan nan nan nan nan nan nan nan nan nan nan nan nan nan nan nan nan nan nan nan nan nan nan nan nan nan nan nan nan nan nan nan nan nan
Wind_Direction
254 263 263 263 259 255 246 234 237 243 255 262 267 277 286 282 250 246 246 240 238 242 246 251 264 257 253 244 232 223 214 209 213 214 213 218 233 nan nan 207 241 nan 255
252 261 251 259 255 254 252 245 233 232 247 258 269 276 284 281 264 249 247 246 245 244 246 252 258 255 250 245 234 224 220 213 210 212 209 204 207 228 211 186 241 nan 276
252 258 264 252 255 252 249 250 244 233 239 251 258 270 274 278 277 256 252 250 246 241 246 246 247 256 251 242 233 224 224 220 208 195 100 nan nan 226 223 230 243 266 279
256 254 257 252 250 247 245 248 249 242 235 237 246 255 268 275 278 271 260 253 247 246 248 249 250 254 257 246 239 231 232 226 207 159 nan nan nan 252 259 248 263 267 274
258 251 251 246 240 241 238 241 243 245 245 240 237 249 249 262 269 268 267 259 252 243 248 251 250 250 252 248 243 236 234 229 200 nan nan 226 234 242 257 246 272 249 270
nan nan 249 239 234 238 244 242 241 243 246 247 243 238 245 253 264 267 268 255 257 253 253 256 257 254 253 250 245 241 236 229 nan nan 209 222 239 250 248 245 254 256 260
nan nan nan nan 241 248 247 249 247 243 241 246 247 248 249 249 249 252 260 260 258 262 261 264 259 259 254 248 nan 244 235 220 nan nan 225 233 240 255 254 254 258 260 264
nan nan nan nan nan nan 246 246 250 250 246 243 243 242 242 247 251 248 253 259 260 267 269 268 266 261 255 247 nan 242 239 nan nan 228 232 233 249 259 255 254 258 nan nan
nan nan nan nan nan nan nan nan 243 243 249 249 251 250 245 242 249 255 258 261 266 267 270 272 267 263 258 247 239 237 236 nan nan 233 236 240 246 259 nan nan nan nan nan
nan nan nan nan nan nan nan nan nan nan 242 246 253 253 252 248 245 248 251 260 263 265 267 267 270 266 259 247 241 236 nan nan 239 241 232 236 245 nan nan nan nan nan nan
nan nan nan nan nan nan nan nan nan nan nan 250 251 256 255 249 256 255 254 251 262 264 267 267 266 266 257 250 247 nan nan nan 244 241 nan nan 240 nan nan nan nan nan nan
nan nan nan nan nan nan nan nan nan nan nan nan nan 258 257 254 250 252 259 257 257 259 262 269 267 263 259 nan 246 nan nan nan nan nan nan 247 238 nan nan nan nan nan nan
nan nan nan nan nan nan nan nan nan nan nan nan nan nan 259 248 241 246 247 249 250 251 247 256 261 254 254 nan nan nan nan nan nan nan nan nan 244 nan nan nan nan nan nan
nan nan nan nan nan nan nan nan nan nan nan nan nan nan nan 251 246 247 248 250 253 251 253 249 nan nan 252 nan nan nan nan nan nan nan nan nan 246 nan nan 247 nan nan nan
nan nan nan nan nan nan nan nan nan nan nan nan nan nan nan nan 242 245 245 245 249 251 254 253 250 nan nan nan nan nan nan nan nan nan nan nan nan 235 250 253 nan nan nan
nan nan nan nan nan nan nan nan nan nan nan nan nan nan nan nan nan 246 243 244 243 247 250 256 257 253 nan nan nan nan nan nan nan nan nan nan nan nan 248 253 257 263 272
nan nan nan nan nan nan nan nan nan nan nan nan nan nan nan nan nan nan nan 243 245 245 248 254 257 256 254 243 nan nan nan nan nan nan nan nan nan nan nan 250 255 258 267
nan nan nan nan nan nan nan nan nan nan nan nan nan nan nan nan nan nan nan nan 242 246 248 251 255 255 254 253 nan nan nan nan nan nan nan nan nan nan nan nan 253 255 260
nan nan nan nan nan nan nan nan nan nan nan nan nan nan nan nan nan nan nan nan nan nan 246 251 254 256 256 256 nan nan nan nan nan nan nan nan nan nan nan nan nan nan nan
nan nan nan nan nan nan nan nan nan nan nan nan nan nan nan nan nan nan nan nan nan nan nan 247 252 256 255 257 nan nan nan nan nan nan nan nan nan nan nan nan nan nan nan
nan nan nan nan nan nan nan nan nan nan nan nan nan nan nan nan nan nan nan nan nan nan nan nan nan nan 253 nan 255 nan nan nan nan nan nan nan nan nan nan nan nan nan nan
nan nan nan nan nan nan nan nan nan nan nan nan nan nan nan nan nan nan nan nan nan nan nan nan nan nan nan nan nan nan nan nan nan nan nan nan nan nan nan nan nan nan nan
nan nan nan nan nan nan nan nan nan nan nan nan nan nan nan nan nan nan nan nan nan nan nan nan nan nan nan nan nan nan nan nan nan nan nan nan nan nan nan nan nan nan nan
nan nan nan nan nan nan nan nan nan nan nan nan nan nan nan nan nan nan nan nan nan nan nan nan nan nan nan nan nan nan nan nan nan nan nan nan nan nan nan nan nan nan nan
nan nan nan nan nan nan nan nan nan nan nan nan nan nan nan nan nan nan nan nan nan nan nan nan nan nan nan nan nan nan nan nan nan nan nan nan nan nan nan nan nan nan nan
nan nan nan nan nan nan nan nan nan nan nan nan nan nan nan nan nan nan nan nan nan nan nan nan nan nan nan nan nan nan nan nan nan nan nan nan nan nan nan nan nan nan nan